Location: Byszew
(52.1813°N, 19.2693°E)
Time: 21:32:33
(UTC+00:00)

Cosmos 1933 Rocket - Pass Details

Date: 03 March 2021
Orbit: 607 x 630 km, 82.5° (Epoch: 15 April)

Event Time Altitude Azimuth Distance (km) Brightness Sun altitude
Rises 17:20:28 0° 165° (SSE) 2,864 6.8 -9.1°
Reaches altitude 10° 17:22:47 10° 156° (SSE) 1,967 5.9 -9.5°
Maximum altitude 17:26:45 35° 91° (E) 1,001 4.1 -10.1°
Drops below altitude 10° 17:30:45 10° 26° (NNE) 1,995 5.9 -10.7°
Sets 17:33:08 0° 17° (NNE) 2,910 6.9 -11.0°
